Temperature
16 16 16 16 16 17 17 16 16 16 17 17 17 17 17 17 17 17 16 17 16 16 16 16 16 16 16 16 16 16 16 16 16 16 16 15 15 15 15 15 15 15 15
16 16 16 16 16 16 17 16 16 16 16 16 17 17 17 16 16 16 16 16 16 16 16 16 16 16 16 16 16 16 16 16 15 15 15 15 15 15 15 15 15 15 15
16 16 16 16 16 16 16 16 16 16 16 16 16 16 16 16 16 16 16 16 16 16 16 16 16 16 16 16 16 16 15 15 15 15 15 15 15 15 15 15 15 15 15
16 16 16 16 16 16 16 16 16 16 16 16 16 16 16 16 16 16 16 16 16 16 16 16 16 16 16 16 15 15 15 15 15 15 15 15 15 15 15 15 15 15 15
16 16 16 16 16 16 16 16 16 16 16 16 16 16 16 16 16 16 16 16 16 16 16 16 16 16 16 15 15 15 15 15 15 15 15 15 15 15 15 15 15 14 14
16 16 16 16 16 16 16 16 16 16 16 16 16 16 16 16 15 15 15 16 16 16 16 16 16 16 15 15 15 15 15 15 14 14 14 15 15 15 15 15 15 14 14
16 15 15 15 15 16 16 16 16 16 16 16 16 16 15 15 15 15 15 15 15 15 15 15 15 15 15 15 15 15 15 14 14 14 14 14 14 14 14 14 14 14 14
15 15 15 15 15 15 15 15 16 16 16 16 16 15 15 15 15 15 15 15 15 15 15 15 15 15 15 15 14 14 14 14 14 14 14 14 14 14 14 14 14 14 14
15 15 15 15 15 15 15 15 15 15 15 15 15 15 15 15 15 15 15 15 15 15 15 15 15 15 15 14 14 14 14 14 14 14 14 14 14 14 14 14 14 14 14
14 14 14 14 15 15 15 15 15 15 15 15 15 15 15 15 15 15 15 15 15 15 15 15 15 15 15 14 14 14 14 14 14 14 14 14 14 14 14 14 14 14 13
14 14 14 14 14 14 14 14 15 15 15 15 15 15 15 15 15 15 15 15 15 14 14 15 15 14 14 14 14 14 14 14 13 13 13 13 13 13 13 13 13 13 13
14 14 14 14 14 14 14 14 14 14 14 14 14 14 14 14 14 14 14 14 14 14 14 14 14 14 14 14 13 13 14 13 13 13 13 13 13 13 13 13 13 13 13
14 13 13 13 14 14 14 14 14 14 14 14 14 14 14 14 14 14 14 14 14 14 14 14 14 14 14 14 13 13 13 13 13 13 13 13 13 13 13 13 13 13 13
14 13 13 13 13 13 13 13 13 13 13 14 14 14 14 14 14 14 14 14 14 14 14 14 14 14 14 13 13 13 13 13 13 13 13 13 13 13 13 13 13 13 13
13 13 13 13 13 13 13 13 13 13 13 13 13 13 13 13 14 14 14 14 14 14 14 14 14 14 13 13 13 13 13 13 13 13 13 13 13 13 13 13 13 13 13
13 13 13 13 13 13 13 13 13 13 13 13 13 13 13 13 13 13 13 14 13 13 13 13 13 13 13 13 13 13 13 13 13 13 13 13 13 13 13 13 13 12 12
12 12 12 12 12 12 12 12 12 12 12 12 13 13 13 13 13 13 13 13 13 13 13 13 13 13 13 13 13 13 13 12 12 12 12 12 13 13 13 13 13 12 12
12 12 12 12 12 12 12 12 12 12 12 12 12 12 12 13 13 13 13 13 13 13 13 13 13 13 13 13 12 12 12 12 12 12 12 12 12 12 12 12 12 12 12
12 12 11 11 11 11 11 11 11 11 11 11 12 12 12 12 12 12 13 13 13 13 13 13 13 13 13 12 12 12 12 12 12 12 12 12 12 12 12 12 12 12 12
12 11 11 11 11 11 11 11 11 11 11 11 11 11 12 12 12 12 12 12 12 12 12 12 12 12 12 12 12 12 12 12 12 12 11 11 12 12 12 12 12 12 12
11 11 11 11 11 11 10 10 10 10 11 11 11 11 11 11 11 12 12 12 12 12 12 12 12 12 12 12 12 11 11 11 11 11 11 11 11 11 11 11 11 11 11
11 11 11 10 10 10 10 10 10 10 10 10 10 11 11 11 11 11 11 12 12 12 12 12 12 12 12 11 11 11 11 11 11 11 11 11 11 11 11 11 11 11 11
10 10 10 10 10 10 10 10 10 9 9 10 10 10 10 10 11 11 11 11 11 11 11 11 11 12 12 11 11 11 11 10 10 10 10 10 10 10 10 10 10 10 10
10 10 10 10 10 10 10 10 9 9 9 10 10 10 10 10 10 10 10 11 11 11 11 11 11 11 11 11 11 11 11 11 10 10 10 10 10 10 10 10 10 10 10
10 10 10 10 9 9 9 9 9 9 9 9 9 9 9 9 9 10 10 10 10 10 10 11 11 11 11 11 11 11 10 10 10 10 9 10 10 10 9 9 9 9 9
9 9 9 9 9 9 9 9 9 9 9 8 9 9 9 9 9 9 9 9 10 10 10 10 10 10 10 10 10 10 10 10 10 10 9 9 9 9 9 9 9 9 9
Wind_Speed
4 7 12 12 12 12 11 11 11 12 12 12 12 12 13 13 13 13 13 13 13 12 12 12 12 13 13 14 14 14 14 14 14 13 13 14 14 14 14 13 13 13 14
8 10 13 13 13 12 11 11 11 11 11 11 11 12 12 12 12 12 12 12 12 12 11 12 12 12 13 13 13 13 13 13 13 12 12 12 13 13 12 12 11 11 13
9 10 12 13 13 12 11 11 11 11 11 11 11 11 11 12 12 11 11 11 12 12 11 11 12 11 11 11 11 11 11 11 11 11 10 9 10 11 12 12 11 11 11
10 10 11 12 12 12 11 11 11 10 10 11 11 11 11 11 11 11 11 11 11 11 11 11 11 11 11 10 10 10 10 10 10 9 8 7 8 10 11 11 11 10 10
8 9 10 12 12 12 11 10 10 10 10 10 10 10 10 10 10 11 11 11 11 11 11 11 11 10 10 9 9 9 9 9 10 9 9 8 8 10 11 10 10 10 10
7 9 10 11 11 11 11 10 10 9 9 10 10 9 10 10 10 11 11 11 11 11 11 11 10 10 9 8 8 8 8 9 9 9 9 8 8 10 10 10 10 10 9
7 7 9 11 11 10 10 10 10 9 9 9 10 9 9 9 10 10 11 11 11 11 11 10 10 9 8 7 7 7 8 9 9 8 7 7 8 10 10 9 9 9 10
7 6 7 9 9 10 10 10 10 9 9 9 9 9 9 9 9 10 10 11 11 11 11 10 10 9 8 7 6 7 8 9 9 7 7 7 8 9 9 9 8 9 9
6 5 5 7 8 9 9 9 10 9 9 9 8 8 9 9 9 9 10 10 11 11 11 10 10 9 8 7 6 6 7 8 8 7 7 6 8 9 9 8 8 8 8
5 4 4 5 6 7 8 9 9 9 9 8 8 8 8 9 9 9 9 10 10 11 11 10 10 9 7 6 6 5 6 8 7 6 6 6 8 8 8 8 7 7 8
4 3 4 3 4 6 7 8 8 8 8 8 7 8 8 8 8 8 8 9 10 10 10 10 10 9 7 6 6 5 6 6 7 5 6 7 8 8 8 7 7 7 7
5 4 4 4 4 5 6 6 7 7 7 7 7 7 7 8 8 8 8 9 9 10 10 10 9 8 7 5 5 5 5 6 6 4 6 8 8 8 8 8 7 7 7
6 5 4 4 4 5 4 5 5 5 6 6 7 8 7 7 7 7 7 7 7 8 7 8 8 7 6 5 5 5 5 5 6 5 6 7 8 8 8 8 7 7 7
5 5 4 4 4 5 5 4 5 4 4 5 7 9 8 5 5 5 5 6 6 6 6 6 6 6 6 6 6 6 5 5 6 5 7 8 8 8 7 7 7 6 6
4 5 5 4 5 5 5 4 4 4 5 6 7 8 9 6 4 5 5 6 6 6 6 6 5 5 5 5 5 6 5 6 7 7 7 8 8 8 7 7 6 6 5
5 5 4 5 5 5 5 4 4 5 6 6 6 8 9 8 6 5 5 5 5 7 7 7 6 5 4 4 3 5 5 6 7 7 7 8 8 7 7 6 6 5 4
5 4 4 5 4 5 5 5 5 5 6 5 6 8 9 9 8 6 4 4 5 7 8 7 5 5 4 3 3 3 5 5 6 7 8 8 7 7 7 6 6 5 4
6 5 4 4 4 4 4 4 4 5 5 5 6 7 8 9 10 7 5 4 6 7 6 5 4 4 3 3 2 2 3 4 5 6 7 8 7 6 6 5 5 4 4
7 6 5 4 5 4 4 3 4 5 5 5 5 6 7 9 10 8 5 5 7 5 3 5 4 4 4 3 3 2 2 2 3 5 5 6 7 7 6 5 5 4 3
6 6 6 5 5 4 3 2 2 3 4 4 4 5 6 7 9 8 5 5 6 4 3 4 5 4 3 4 3 2 1 1 2 2 4 5 5 6 5 5 5 3 3
5 6 6 6 5 4 3 3 3 4 4 4 3 5 6 7 8 7 5 4 4 5 5 5 4 5 3 3 3 2 2 2 2 1 2 3 3 4 5 5 4 3 2
6 6 6 6 6 5 5 4 3 3 3 4 3 4 5 6 7 6 5 5 4 4 5 5 4 4 2 3 3 3 1 1 2 1 1 2 3 3 3 4 4 3 3
6 7 7 6 6 5 5 3 3 2 1 2 3 3 3 5 5 5 5 5 5 5 5 5 5 6 4 2 2 4 4 3 1 1 1 1 2 2 2 2 3 3 3
8 7 6 6 6 5 6 6 6 5 3 3 3 2 2 3 4 5 5 5 5 5 5 5 4 4 6 4 2 1 2 3 3 1 1 1 1 1 1 1 2 2 2
7 7 6 7 6 5 6 7 7 5 3 2 2 3 3 2 2 3 4 4 4 4 4 5 4 4 4 4 3 2 2 2 2 3 2 1 1 0 1 1 1 1 1
5 6 6 7 7 6 6 6 6 6 5 3 3 4 3 2 1 2 3 3 3 3 4 4 4 5 4 4 3 3 3 3 3 3 2 2 1 1 1 0 1 1 1
Wind_Direction
170 165 148 140 134 130 130 130 129 128 126 124 124 123 123 121 120 120 121 121 118 116 113 110 108 104 102 100 99 99 96 94 92 88 85 88 90 89 86 84 84 82 85
157 155 148 142 137 132 131 131 129 130 131 130 130 129 130 129 128 126 127 127 124 122 118 115 112 110 106 103 102 102 99 97 94 90 87 89 91 92 89 89 91 89 87
140 146 146 144 140 136 134 133 132 133 135 136 135 135 137 137 135 134 134 133 129 125 122 119 117 115 111 107 105 105 103 99 97 94 90 89 94 96 94 91 94 94 90
136 141 145 146 145 142 138 137 136 136 137 138 139 140 141 142 143 145 141 136 133 130 128 124 120 118 116 114 109 107 104 101 101 97 92 91 96 100 96 91 91 92 92
131 138 146 148 149 147 143 140 140 139 143 143 142 145 146 147 149 149 145 141 137 135 133 130 126 123 120 117 113 111 107 101 99 96 95 95 97 101 98 94 91 90 92
129 138 147 148 151 152 151 149 146 144 144 149 150 150 151 151 151 150 148 145 142 139 137 135 133 130 126 124 120 113 106 106 103 97 97 97 102 105 98 93 92 90 91
136 144 147 151 153 155 157 156 153 152 149 150 155 155 153 154 153 151 150 148 147 145 142 140 140 138 135 131 124 111 103 112 109 102 100 102 108 106 100 95 93 92 90
140 139 146 154 154 159 163 164 162 160 155 152 155 159 157 152 152 155 153 154 154 153 150 147 146 146 144 139 126 110 104 115 112 109 111 110 115 114 108 103 99 95 92
130 132 142 155 156 160 166 171 171 166 162 160 160 161 161 157 154 158 160 160 160 158 156 155 152 154 155 149 132 112 107 117 115 113 119 119 122 119 113 109 103 99 96
132 136 135 148 155 161 167 171 173 169 168 168 165 164 163 161 160 160 163 165 163 160 160 160 159 161 162 157 141 122 116 120 119 117 129 130 131 127 121 114 108 106 103
143 149 147 149 155 163 172 177 176 175 173 170 165 161 160 160 160 161 164 166 167 165 164 164 166 168 166 161 151 138 124 123 124 124 139 142 139 133 126 121 116 109 110
172 178 170 168 166 167 178 178 179 183 179 173 170 165 163 163 165 164 164 169 170 168 167 167 167 166 161 155 152 145 133 129 131 135 147 146 145 139 130 126 119 109 107
183 178 182 183 174 172 170 174 180 182 180 177 175 174 167 160 160 158 155 164 166 165 159 161 156 156 155 156 153 147 147 141 142 148 156 155 152 144 136 130 127 120 112
180 187 187 189 180 180 172 176 178 180 181 181 178 172 163 157 157 157 156 158 157 157 149 146 149 151 153 159 161 153 153 145 147 149 157 160 156 148 141 137 135 131 125
188 191 187 196 190 185 177 179 176 188 184 181 176 173 168 163 171 166 162 158 158 155 152 147 148 148 148 152 158 152 150 148 151 149 152 160 158 152 147 145 141 139 134
194 194 187 187 195 182 180 180 177 181 181 175 176 177 174 171 169 170 167 164 163 162 160 155 156 150 147 141 148 151 153 153 154 152 152 158 160 158 156 153 147 147 145
188 190 184 178 180 177 178 181 170 171 173 173 180 180 179 177 172 168 170 174 171 166 158 148 145 138 142 140 146 145 145 155 157 157 155 156 160 160 162 165 160 159 160
177 181 186 175 172 180 183 180 167 164 167 173 181 181 181 179 175 166 169 179 170 160 153 155 154 148 148 146 146 153 140 145 159 163 158 158 159 159 162 168 169 168 175
179 176 180 174 174 178 172 167 167 159 165 174 178 181 183 180 177 168 169 171 164 154 158 167 155 152 152 152 153 140 139 151 156 159 155 160 160 158 158 164 167 170 184
180 173 174 175 177 170 159 144 153 162 168 165 172 182 181 179 175 166 164 162 158 158 165 163 152 145 152 155 140 114 92 124 128 146 159 158 159 157 153 146 147 157 167
176 172 172 173 174 161 161 164 171 188 180 175 175 174 174 170 166 159 159 158 163 171 175 167 157 147 137 133 110 85 30 43 87 115 138 144 148 153 147 147 146 139 134
183 183 176 178 177 175 177 178 175 178 186 178 168 161 169 165 165 165 161 167 168 166 164 168 154 146 138 144 137 129 105 14 353 24 119 158 159 141 140 156 156 155 155
188 188 184 181 178 175 168 150 128 100 90 130 156 167 157 158 159 159 159 162 167 171 172 171 169 158 158 159 144 146 149 186 219 336 344 155 156 153 152 160 163 171 174
197 191 185 178 170 167 162 156 154 153 173 188 177 164 147 140 150 154 151 156 164 166 169 172 167 159 155 163 148 106 140 147 145 157 318 341 137 157 173 149 142 154 166
193 186 184 174 166 163 164 167 165 158 167 173 150 141 144 130 137 142 145 149 154 155 163 164 156 154 159 163 163 145 116 94 104 140 179 262 342 291 198 167 143 134 163
186 178 174 169 170 166 164 166 165 158 153 153 151 157 156 150 143 125 124 133 138 142 154 161 158 158 159 157 159 154 155 150 159 149 166 183 206 257 268 125 141 147 149
Height
1520 1522 1524 1525 1527 1528 1529 1530 1531 1532 1533 1534 1535 1536 1537 1538 1539 1539 1540 1541 1542 1542 1543 1544 1544 1545 1545 1546 1546 1547 1547 1547 1548 1548 1548 1548 1549 1549 1549 1549 1549 1549 1549
1519 1522 1523 1525 1526 1527 1529 1530 1531 1532 1533 1534 1535 1536 1537 1538 1539 1539 1540 1541 1542 1543 1543 1544 1545 1545 1546 1547 1547 1548 1548 1549 1549 1549 1550 1550 1550 1550 1550 1550 1550 1550 1550
1519 1521 1522 1524 1525 1527 1528 1529 1530 1531 1532 1534 1535 1536 1537 1538 1539 1539 1540 1541 1542 1543 1544 1544 1545 1546 1546 1547 1548 1548 1549 1549 1550 1550 1551 1551 1551 1551 1552 1552 1552 1552 1552
1518 1520 1522 1523 1525 1526 1527 1528 1529 1531 1532 1533 1534 1535 1536 1537 1538 1539 1540 1541 1542 1543 1544 1544 1545 1546 1547 1548 1548 1549 1550 1550 1551 1551 1552 1552 1552 1553 1553 1553 1553 1553 1553
1518 1519 1521 1523 1524 1525 1526 1527 1528 1530 1531 1532 1533 1535 1536 1537 1538 1539 1540 1541 1542 1543 1544 1544 1545 1546 1547 1548 1549 1549 1550 1551 1551 1552 1552 1553 1553 1554 1554 1554 1554 1554 1554
1517 1518 1520 1521 1523 1524 1525 1526 1527 1529 1530 1531 1532 1534 1535 1536 1537 1539 1540 1541 1542 1543 1544 1545 1546 1546 1547 1548 1549 1549 1550 1551 1552 1553 1553 1554 1554 1554 1555 1555 1555 1555 1555
1516 1517 1519 1520 1521 1522 1524 1525 1526 1527 1529 1530 1531 1533 1534 1535 1537 1538 1539 1540 1542 1543 1544 1545 1546 1547 1547 1548 1549 1550 1550 1551 1552 1553 1554 1554 1555 1555 1555 1555 1556 1555 1555
1514 1516 1517 1519 1520 1521 1522 1523 1525 1526 1527 1528 1530 1532 1533 1534 1536 1537 1538 1540 1541 1542 1543 1544 1545 1546 1547 1548 1549 1550 1550 1551 1552 1553 1554 1555 1555 1556 1556 1556 1556 1556 1556
1513 1514 1516 1517 1518 1519 1520 1522 1523 1524 1526 1527 1528 1530 1532 1533 1535 1536 1537 1539 1540 1541 1542 1544 1545 1546 1547 1548 1549 1550 1551 1552 1552 1553 1554 1555 1555 1556 1556 1556 1556 1556 1556
1511 1512 1514 1515 1516 1517 1518 1520 1521 1522 1524 1525 1527 1528 1530 1532 1533 1535 1536 1538 1539 1540 1542 1543 1544 1545 1547 1548 1549 1549 1550 1551 1552 1553 1554 1555 1555 1556 1556 1556 1556 1556 1556
1509 1510 1512 1513 1514 1515 1516 1517 1519 1520 1521 1523 1525 1526 1528 1530 1531 1533 1535 1536 1538 1539 1541 1542 1543 1545 1546 1547 1548 1549 1550 1551 1552 1553 1554 1555 1555 1555 1556 1556 1556 1556 1556
1506 1508 1509 1510 1511 1512 1514 1515 1516 1518 1519 1520 1522 1524 1526 1528 1529 1531 1533 1535 1536 1538 1539 1541 1542 1544 1545 1546 1548 1549 1549 1551 1552 1552 1553 1554 1555 1555 1555 1555 1556 1556 1556
1504 1505 1506 1508 1509 1510 1511 1512 1514 1515 1516 1517 1520 1521 1523 1525 1527 1529 1531 1533 1535 1536 1538 1539 1541 1542 1544 1545 1547 1548 1549 1550 1551 1552 1553 1554 1554 1555 1555 1555 1555 1556 1556
1501 1502 1504 1505 1506 1507 1508 1510 1511 1512 1514 1515 1517 1519 1521 1522 1525 1527 1529 1531 1532 1534 1536 1537 1539 1541 1543 1544 1545 1547 1548 1549 1550 1551 1552 1553 1554 1554 1555 1555 1555 1555 1555
1498 1499 1500 1502 1503 1504 1505 1507 1508 1510 1511 1512 1514 1516 1518 1520 1522 1524 1526 1529 1530 1532 1534 1536 1538 1539 1541 1543 1544 1545 1546 1548 1549 1550 1551 1552 1553 1554 1554 1554 1555 1555 1555
1494 1495 1497 1498 1500 1501 1502 1504 1505 1507 1508 1510 1512 1514 1516 1518 1520 1522 1524 1526 1528 1530 1532 1534 1536 1538 1539 1541 1543 1544 1545 1546 1548 1549 1550 1551 1552 1553 1553 1554 1554 1554 1554
1491 1492 1493 1495 1496 1498 1499 1500 1502 1503 1505 1507 1509 1511 1513 1515 1517 1519 1521 1523 1526 1528 1530 1532 1534 1536 1538 1539 1541 1543 1544 1545 1547 1548 1549 1550 1551 1551 1552 1552 1553 1553 1553
1487 1489 1490 1491 1492 1494 1496 1497 1498 1500 1502 1504 1506 1508 1510 1513 1515 1517 1518 1521 1523 1526 1528 1530 1532 1534 1535 1537 1539 1541 1542 1543 1545 1546 1547 1548 1549 1550 1551 1551 1551 1552 1552
1483 1485 1486 1487 1489 1490 1492 1493 1495 1497 1499 1501 1503 1505 1507 1510 1512 1514 1516 1518 1521 1523 1525 1527 1529 1531 1533 1535 1537 1539 1540 1542 1543 1544 1545 1546 1547 1548 1549 1550 1550 1550 1550
1479 1481 1482 1484 1485 1487 1488 1490 1491 1493 1495 1498 1500 1502 1504 1506 1509 1511 1513 1515 1518 1520 1523 1525 1527 1529 1531 1533 1535 1537 1538 1540 1541 1542 1543 1545 1546 1546 1547 1548 1548 1548 1548
1475 1477 1478 1480 1481 1483 1485 1486 1487 1489 1491 1494 1497 1499 1501 1503 1505 1508 1510 1512 1515 1518 1520 1522 1524 1526 1528 1530 1532 1534 1536 1538 1539 1540 1541 1542 1543 1544 1545 1546 1546 1546 1546
1470 1472 1474 1475 1477 1479 1481 1483 1485 1486 1488 1490 1493 1496 1498 1500 1502 1504 1507 1509 1511 1514 1517 1519 1521 1523 1525 1527 1529 1531 1533 1536 1536 1537 1539 1540 1541 1542 1543 1544 1544 1544 1544
1466 1468 1470 1472 1474 1476 1478 1480 1482 1484 1485 1486 1489 1492 1494 1497 1499 1501 1503 1506 1509 1511 1513 1516 1518 1519 1521 1524 1526 1528 1529 1531 1533 1535 1536 1537 1538 1539 1540 1541 1542 1542 1542
1462 1464 1466 1468 1470 1472 1474 1476 1478 1479 1481 1483 1485 1488 1491 1494 1496 1498 1501 1503 1506 1508 1510 1513 1515 1517 1519 1520 1523 1524 1527 1527 1529 1531 1533 1534 1536 1537 1538 1538 1539 1539 1540
1458 1460 1462 1465 1467 1469 1471 1473 1475 1477 1479 1482 1483 1485 1488 1491 1493 1496 1498 1501 1503 1505 1507 1510 1512 1514 1515 1517 1519 1521 1523 1525 1526 1527 1529 1531 1533 1534 1535 1536 1536 1537 1537
1454 1456 1459 1461 1463 1466 1468 1470 1472 1474 1477 1479 1481 1482 1485 1488 1490 1493 1495 1498 1500 1502 1504 1507 1509 1511 1513 1515 1516 1518 1520 1521 1523 1525 1526 1527 1528 1530 1532 1533 1533 1534 1534